Regional Weather Roundup
Issued by NWS Grand Forks, ND

Home | Current Version | Previous Version | Graphics & Text | Print | Product List | Glossary On
Versions: 1 2 3 4 5 6 7 8 9 10 11 12 13 14 15 16 17 18 19 20 21 22 23 24 25 26 27 28 29 30 31 32 33 34 35 36 37 38 39 40 41 42 43 44 45 46 47 48 49 50
000
ASUS43 KFGF 032131
RWRFGF
PRAIRIE TO PINES  WEATHER ROUNDUP
NATIONAL WEATHER SERVICE EASTERN NORTH DAKOTA/GRAND FORKS ND
400 PM CDT THU SEP 03 2015

 **SATELLITE DATA USED TO AUGMENT SKY COVER AT AUTOMATED STATIONS**
 *****  WEATHER ACROSS EASTERN NORTH DAKOTA  *****

CITY           SKY/WX    TMP DP  RH WIND       PRES   REMARKS
GRAND FORKS    MOSUNNY   92  71  50 S22G31    29.69F HX  98
GRAND FRKS AFB SUNNY     92  71  50 S21G30    29.70S HX  98
GRAND FRKS NWS   N/A     91 N/A N/A S18         N/A
DEVILS LAKE    SUNNY     91  70  49 SE18G24   29.66F HX  97
FARGO          SUNNY     93  71  48 S17G26    29.74F HX 100
WAHPETON ARPT  CLEAR     91  64  40 S17G23    29.77F HX  93
$$

 ***** WEATHER ACROSS CENTRAL AND WESTERN NORTH DAKOTA  *****

CITY           SKY/WX    TMP DP  RH WIND       PRES   REMARKS
BISMARCK       PTSUNNY  100  62  28 S12       29.65F HX 101
MINOT          PTSUNNY   94  61  33 VRB7      29.63F HX  94
JAMESTOWN      SUNNY     95  65  37 S22G29    29.70F HX  97
MINOT AFB      PTSUNNY   96  64  33 NW5       29.62F HX  98
GARRISON         N/A     94  59  31 W7        29.65F HX  93
WILLISTON      MOSUNNY   84  49  29 N18       29.70F
DICKINSON      SUNNY     90  53  28 NW10      29.71S
HETTINGER      MOSUNNY   92  45  19 VRB7      29.74S
$$

 *****  OTHER AIRPORT OBSERVATIONS IN OUR AREA  *****

CITY           SKY/WX    TMP DP  RH WIND       PRES   REMARKS
WALHALLA       FAIR      88  72  58 MISG      29.67F HX  94
GRAFTON AIRPOR FAIR      91  72  52 S23       29.69F HX  98
VALLEY CITY AR FAIR      95  68  41 S18G24    29.72S HX  99
CANDO          FAIR      91  72  52 S23G29    29.66S HX  98
CAVALIER APRT  FAIR      91  73  55 S17G24    29.67F HX 100
GWINNER          N/A     97 N/A N/A SE16G23   29.74F
SHEYENNE NWR     N/A     91  73  55 SE15      29.95S HX  99
ROLLA            N/A     90  68  48 S16       29.67F HX  93
 ***** THE ABOVE OBSERVATIONS ARE NON NWS ARE NOT QUALITY
       CONTROLLED AND MAY MIS-REPORT RAIN FOR SNOW...
$$

  *****  WEATHER ACROSS NORTHERN MINNESOTA  *****

CITY           SKY/WX    TMP DP  RH WIND       PRES   REMARKS
FLAG ISLAND    SUNNY     75  66  73 S9        29.82S
WARROAD        SUNNY     86  72  62 SE13G22   29.80F HX  92
ROSEAU         SUNNY     88  73  62 SE16G22   29.78F HX  96
HALLOCK        SUNNY     93  70  46 S25G31    29.70S HX  99
THF RVR FALLS  MOSUNNY   86  70  58 SE14G23   29.77S HX  90
BAUDETTE       SUNNY     85  64  49 SE15G23   29.84F
WASKISH        SUNNY     82  66  57 SE12G17   29.86S
CROOKSTON      SUNNY     90  70  51 S20G30    29.74F HX  95
STEPHEN NDAWN    N/A     91  70  49 S17         N/A  HX  97
GREENBUSH NDAW   N/A     90  72  55 SE13        N/A  HX  96
$$
  *****  WEATHER ACROSS CENTRAL AND WEST MINNESOTA  *****

CITY           SKY/WX    TMP DP  RH WIND       PRES   REMARKS
FOSSTON        SUNNY     91  66  43 SE16      29.80F HX  94
BEMIDJI        SUNNY     83  69  61 SE14G22   29.86S
PARK RAPIDS    SUNNY     87  69  54 SE13      29.86F HX  91
ELBOW LAKE     FAIR      86  74  67 SE13      29.81F HAZE    HX  94
WADENA         SUNNY     84  72  65 SE14      29.85F
DETROIT LAKES  SUNNY     88  70  55 SE13G24   29.83S HX  92
MOORHEAD       SUNNY     90  72  55 SE18G24   29.76S HX  96
FERGUS FALLS   SUNNY     88  72  58 SE15      29.78F HX  94
MORRIS MN      SUNNY     90  75  62 SE14      29.80F HX 100
STAPLES        SUNNY     84  70  61 SE9       29.86F
$$
  *****  WEATHER ELSEWHERE ACROSS MINNESOTA  *****

CITY           SKY/WX    TMP DP  RH WIND       PRES   REMARKS
DULUTH         SUNNY     72  64  76 E12       29.97F
INTRNTL FALLS  SUNNY     83  64  52 SE13      29.90F
ELY            SUNNY     79  57  47 SE9       29.97S
CLOQUET        SUNNY     70  63  78 E9        29.97S
WHEATON        NOT AVBL
BRAINERD       SUNNY     82  68  62 VRB7      29.89F
HIBBING        SUNNY     79  62  56 SE13G18   29.95F
ALEXANDRIA     SUNNY     85  73  67 SE13G23   29.86F HX  91
SAINT CLOUD    SUNNY     84  72  67 E9G18     29.87F
MINNEAPOLIS    MOSUNNY   83  72  69 E14       29.87F
$$

  *****  WEATHER ACROSS SOUTH DAKOTA  *****

CITY           SKY/WX    TMP DP  RH WIND       PRES   REMARKS
SIOUX FALLS    MOSUNNY   86  70  58 SE12      29.79F HX  90
BROOKINGS      SUNNY     88  72  58 SE15G21   29.81F HX  94
WATERTOWN      SUNNY     90  71  53 S12       29.80F HX  96
HURON          SUNNY     91  70  49 SE15      29.73F HX  96
SISSETON         N/A     92  73  53 SE13      29.76F HX 100
ABERDEEN       SUNNY     93  69  45 S18       29.73F HX  98
MITCHELL       SUNNY     91  72  53 SE16      29.75F HX  98
PIERRE         MOSUNNY   98  55  23 SE22      29.68F HX  96
MOBRIDGE       MOSUNNY   97  60  29 S18G25    29.66F HX  97
RAPID CITY     PTSUNNY   96  49  20 S10G22    29.74F HX  93
$$

  *****  SOME WEATHER IN NEARBY STATES *****

CITY           SKY/WX    TMP DP  RH WIND       PRES   REMARKS
GLASGOW MT     MOSUNNY   82  40  22 N9G21     29.78F
GREAT FALLS MT CLOUDY    62  39  42 NE14      29.92S
CHEYENNE WY    LGT RAIN  75  48  38 S14G25    30.05F
SCOTTSBLUFF NE CLOUDY    87  47  24 SE15      29.87F
OMAHA NE       MOSUNNY   93  69  45 S16       29.81F HX  98
DES MOINES IA  MOSUNNY   91  70  49 S14       29.86F HX  96
DAVENPORT IA   SUNNY     90  70  51 SW10      29.90F HX  95
CHICAGO IL     MOSUNNY   90  68  48 W12       29.88F HX  94
EAU CLAIRE WI  SUNNY     82  68  62 E9        29.91F
LA CROSSE WI   MOSUNNY   88  73  61 E9        29.87F HX  95
$$

  *****  SOME NATIONAL WEATHER *****

CITY           SKY/WX    TMP DP  RH WIND       PRES   REMARKS
LA GUARDIA NY  PTSUNNY   92  56  29 NE8       29.81F HX  90
RALEIGH NC     PTSUNNY   90  67  46 W6        29.90F HX  93
ATLANTA GA     LGT RAIN  73  68  83 W7        29.97F
NEW ORLEANS LA CLOUDY    84  74  71 S9        29.94F HX  91
OKLAHOMA CITY  PTSUNNY   92  63  38 S13G22    29.91F HX  93
ALBUQUERQUE NM MOSUNNY   85  46  25 VRB3      30.07F
SALT LAKE CITY FAIR      88  32  13 S29G39    29.84F
LOS ANGELES CA FAIR      73  58  59 W12G18    29.88F
BOISE ID       FAIR      66  42  41 NW17G24   29.90F
SEATTLE WA     PTSUNNY   63  47  55 SW10      30.01S
$$

*** WEATHER ACROSS MANITOBA...SASKATCHEWAN AND ONTARIO ***
                ***ONTARIO***

CITY           SKY/WX    TMP DP  RH WIND       PRES   REMARKS
GERALDTON      MOSUNNY   82  52  34 S7        30.01S
THUNDER BAY    MOSUNNY   77  59  53 E9        30.00F
SIOUX LOOKOUT  MOSUNNY   84  57  39 S12G17    29.94S
TORONTO        PTSUNNY   84  70  61 SE7       29.91R
BIG TROUT LK   SUNNY     79  66  65 NW6       29.87R
PICKLE LAKE    MOSUNNY   86  52  30 S13G22    29.94S
DRYDEN         SUNNY     84  55  37 S12G22    29.92S
KENORA         MOSUNNY   84  63  48 SE9G18    29.86F
$$
                *** MANITOBA***

CITY           SKY/WX    TMP DP  RH WIND       PRES   REMARKS
BRANDON        PTSUNNY   84  70  61 S7        29.68R
DAUPHIN        PTSUNNY   77  72  83 NE10      29.69S
ISLAND LAKE    PTSUNNY   73  64  73 SE7       29.79
PILOT MOUND      N/A     90  66  45 SE20G26     N/A  HX  92
THE PAS        MOSUNNY   75  52  43 NW12      29.76R
THOMPSON       PTSUNNY   79  64  61 SW7       29.68F
WINNIPEG       MOSUNNY   88  73  62 SE21G31   29.69F HX  96
LYNN LAKE      PTSUNNY   73  55  53 W14G24    29.67R
CHURCHILL      PTSUNNY   55  52  88 E18       29.77F
GILLAM         PTSUNNY   77  63  61 SE7       29.72R
$$
                ***SASKATCHEWAN***

CITY           SKY/WX    TMP DP  RH WIND       PRES   REMARKS
ESTEVAN        CLOUDY    82  64  54 N16G23    29.71S
KINDERSLEY     CLOUDY    55  41  58 N5        29.96S
LLOYDMINSTER   PTSUNNY   59  41  51 NW12G18   29.93S
PRINCE ALBERT  MOSUNNY   59  50  72 NW8       29.88F
REGINA         MOSUNNY   72  46  40 N18G30    29.80F
YORKTON        MOSUNNY   79  52  38 NW20G28   29.75F
N. BATTLEFORD  CLOUDY    59  43  55 W10       29.94F
LA RONGE       PTSUNNY   59  46  63 W16       29.83
SASKATOON      PTSUNNY   59  46  63 NW12      29.93S
SWIFT CURRENT  LGT RAIN  63  41  45 N14G21    29.91S
$$
NOTE: THESE ARE AUTOMATED STATIONS WITH LIMITED QUALITY CONTROL
      "FAIR" INDICATES FEW OR NO CLOUDS BELOW 12,000 FEET WITH NO
      SIGNIFICANT WEATHER AND/OR OBSTRUCTIONS TO VISIBILITY.
      SKY/WX - SKY CONDITION AND SIGNIFICANT WEATHER.
      TMP - AIR TEMPERATURE.    DP   - DEWPOINT TEMPERATURE.
      RH  - RELATIVE HUMIDITY.  PRES - PRESSURE.
      HX  - HEAT INDEX.         WCI  - WIND CHILL INDEX.
$



USA.gov is the U.S. government's official web portal to all federal, state and local government web resources and services.